CST,Max TemperatureF,Mean TemperatureF,Min TemperatureF,Max Dew PointF,MeanDew PointF,Min DewpointF,Max Humidity, Mean Humidity, Min Humidity, Max Sea Level PressureIn, Mean Sea Level PressureIn, Min Sea Level PressureIn, Max VisibilityMiles, Mean VisibilityMiles, Min VisibilityMiles, Max Wind SpeedMPH, Mean Wind SpeedMPH, Max Gust SpeedMPH,PrecipitationIn, CloudCover, Events, WindDirDegrees
2013-1-1,52,46,40,52,47,39,100,90,80,30.11,30.04,29.98,10,4,0,17,6,22,1.52,8,Rain,48
2013-1-2,40,37,34,37,33,30,100,91,82,30.23,30.17,30.09,10,7,5,14,8,16,0.00,8,,359
2013-1-3,46,38,30,31,28,24,89,69,49,30.41,30.31,30.21,10,9,6,12,6,18,0.00,4,,342
2013-1-4,48,38,28,27,24,22,85,64,42,30.48,30.42,30.39,10,10,10,10,3,15,0.00,0,,20
2013-1-5,49,38,27,39,32,25,100,73,46,30.43,30.34,30.29,10,8,3,9,3,12,0.06,6,Rain,212
2013-1-6,50,43,35,40,37,31,100,81,61,30.34,30.26,30.22,10,7,2,14,5,17,T,6,Rain,269
2013-1-7,53,40,26,32,29,24,92,67,41,30.42,30.34,30.29,10,9,6,12,4,16,0.00,0,,64
2013-1-8,60,47,33,45,39,28,82,68,53,30.35,30.28,30.25,10,10,10,15,8,17,0.00,6,,122
2013-1-9,58,54,50,57,54,45,100,89,77,30.38,30.34,30.28,10,5,2,10,7,,0.49,8,Rain,99
2013-1-10,67,62,57,61,58,54,93,87,81,30.35,30.23,30.04,10,9,5,25,13,32,0.02,8,,124
2013-1-11,70,67,63,64,62,60,100,89,78,30.12,30.06,30.03,10,9,6,22,10,29,0.06,8,Rain,179
2013-1-12,72,69,65,66,63,58,100,88,76,30.08,30.01,29.92,10,9,2,17,9,23,0.01,7,Rain,170
2013-1-13,70,56,42,65,58,37,100,87,73,30.16,29.98,29.88,10,7,1,25,11,37,0.97,8,Rain-Thunderstorm,198
2013-1-14,42,38,34,38,34,32,100,90,79,30.29,30.21,30.16,10,6,2,20,12,25,1.33,8,Rain,18
2013-1-15,41,39,36,39,36,33,100,96,92,30.18,30.06,29.96,10,4,1,18,7,22,2.02,8,Rain,23
2013-1-16,39,38,37,37,37,36,100,93,85,30.11,30.06,29.99,10,9,2,12,6,15,0.32,8,Rain,1
2013-1-17,42,38,33,37,32,27,100,82,64,30.42,30.09,29.94,10,7,0,24,12,30,0.28,6,Rain-Snow,341
2013-1-18,51,40,29,34,31,27,92,69,46,30.60,30.48,30.42,10,9,5,12,3,16,0.00,0,,26
2013-1-19,56,43,30,35,31,27,92,65,38,30.42,30.32,30.23,10,10,10,16,5,20,0.00,1,,158
2013-1-20,60,46,32,39,35,30,92,68,44,30.26,30.20,30.15,10,10,5,10,2,14,0.00,1,,354
2013-1-21,48,39,29,33,23,18,100,66,31,30.29,30.22,30.14,10,10,10,17,6,21,0.00,0,,343
2013-1-22,41,33,24,21,17,13,68,51,34,30.43,30.35,30.28,10,10,10,10,4,14,0.00,3,,355
2013-1-23,57,46,34,38,30,21,71,56,41,30.39,30.29,30.20,10,10,10,13,4,17,0.00,6,,226
2013-1-24,47,41,35,39,24,16,86,60,33,30.41,30.32,30.21,10,10,10,20,8,25,0.00,6,,31
2013-1-25,51,45,39,47,38,17,100,70,40,30.27,30.16,30.10,10,6,1,22,8,25,0.18,8,Rain,73
2013-1-26,54,44,33,37,33,31,96,71,45,30.34,30.30,30.24,10,9,5,12,5,15,0.00,6,,25
2013-1-27,52,46,40,40,37,32,76,68,59,30.37,30.32,30.28,10,10,7,15,9,17,T,7,Rain,115
2013-1-28,65,55,44,53,47,37,93,77,61,30.32,30.25,30.18,10,9,7,18,10,25,0.00,5,,151
2013-1-29,70,60,50,63,59,49,96,87,78,30.18,29.99,29.73,10,7,2,25,12,36,T,7,,147
2013-1-30,72,56,39,65,51,27,100,80,59,29.97,29.67,29.57,10,7,2,37,15,47,1.33,8,Rain-Thunderstorm,241
2013-1-31,50,41,32,30,27,23,75,57,39,30.19,30.12,29.99,10,10,10,21,11,29,0.00,3,,265